Location: Basse Occidentale du Courleau
(48.3833°N, 4.8333°W)
Time: 09:29:49
(UTC+00:00)

USA 267 - Pass Details

Date: 05 July 2020
Orbit: 1102 x 1106 km, 123.0° (Epoch: 03 August)

Event Time Altitude Azimuth Distance (km) Brightness Sun altitude
Exits shadow 23:21:18 26° 154° (SSE) 2,013 4.1 -17.6°
Maximum altitude 23:25:01 57° 222° (SW) 1,280 3.4 -17.7°
Drops below altitude 10° 23:31:27 10° 301° (WNW) 2,967 6.1 -18.0°
Sets 23:34:01 0° 305° (NW) 3,928 6.9 -18.1°
